Weather History for Bandar Lengeh, Iran

Change the Weather History Date:

Thursday, February 14, 2013

  Actual Average Record
Temperature  
Mean Temperature 69 °F -  
Max Temperature 78 °F 77 °F - ()
Min Temperature 60 °F 59 °F - ()
Cooling Degree Days 4    
Growing Degree Days 19 (Base 50)    
Moisture  
Dew Point 58 °F    
Average Humidity 67    
Maximum Humidity 88    
Minimum Humidity 41    
Precipitation  
Precipitation 0.00 in 0.04 in - ()
Sea Level Pressure  
Sea Level Pressure 29.92 in    
Wind  
Wind Speed 4 mph ()    
Max Wind Speed 21 mph    
Max Gust Speed -    
Visibility 3.7 miles    
Events      
T = Trace of Precipitation, MM = Missing Value Source: Averaged Metar Reports

Daily Weather History Graph

Daily Weather History Graph

Search for Another Location

Airport:

Trip Planner

Search our weather history database for the weather conditions in past years. The results will help you decide how hot, cold, wet, or windy it might be!

Date:

Astronomy

Feb. 14, 2013 Rise Set
Actual Time 6:27 AM IRST 5:42 PM IRST
Civil Twilight 6:03 AM IRST 6:06 PM IRST
Nautical Twilight 5:36 AM IRST 6:33 PM IRST
Astronomical Twilight 5:09 AM IRST 7:00 PM IRST
Moon 8:45 AM IRST (2/14) 9:48 PM IRST (2/14)
Length of Visible Light 12h 02m
Length of Day
11h 15m
Waxing Crescent, 18% of the Moon is Illuminated
Feb 14
Waxing Crescent
Feb 18
First Quarter
Feb 25
Full
Mar 5
Last Quarter
Mar 11
New

Hourly Weather History & Observations

Time (IRST) Temp. Dew Point Humidity Pressure Visibility Wind Dir Wind Speed Gust Speed Precip Events Conditions
12:30 AM 68.0 °F 64.4 °F 88% 29.92 in - Calm Calm - N/A   Clear
3:20 AM 64.4 °F 60.8 °F 88% 29.89 in 3.1 mi Calm Calm - N/A   Clear
3:30 AM 65 °F 61 °F 83% 29.91 in 3 mi Calm Calm - -   Mist
3:30 AM 64.4 °F 60.8 °F 88% 29.89 in 3.1 mi Calm Calm - N/A   Clear
5:20 AM 64.4 °F 59.0 °F 83% 29.89 in 3.1 mi Calm Calm - N/A   Clear
5:30 AM 64.4 °F 59.0 °F 83% 29.89 in 3.1 mi Calm Calm - N/A   Clear
6:20 AM 60.8 °F 57.2 °F 88% 29.89 in 3.1 mi Calm Calm - N/A   Clear
6:30 AM 60.8 °F 57.2 °F 88% 29.89 in 3.1 mi Calm Calm - N/A   Clear
7:30 AM 62.6 °F 59.0 °F 88% 29.89 in 3.1 mi Calm Calm - N/A   Clear
8:30 AM 68.0 °F 60.8 °F 78% 29.95 in 3.1 mi Calm Calm - N/A   Haze
9:30 AM 72 °F 58 °F 52% 29.99 in 3 mi Calm Calm - -   Haze
9:30 AM 71.6 °F 57.2 °F 60% 29.98 in 3.1 mi Calm Calm - N/A   Haze
10:30 AM 75.2 °F 57.2 °F 53% 29.98 in 3.7 mi Calm Calm - N/A   Clear
11:30 AM 73.4 °F 64.4 °F 73% 29.98 in 3.7 mi SSE 6.9 mph - N/A   Clear
12:30 PM 75.2 °F 62.6 °F 65% 29.98 in 4.3 mi SSE 9.2 mph - N/A   Clear
1:30 PM 75.2 °F 62.6 °F 65% 29.92 in 4.3 mi SW 11.5 mph - N/A   Clear
2:30 PM 78.8 °F 53.6 °F 42% 29.89 in 4.3 mi WSW 16.1 mph - N/A   Clear
3:30 PM 77 °F 58 °F 41% 29.97 in 4 mi WSW 20.1 mph - -   Haze
3:30 PM 77.0 °F 57.2 °F 50% 29.95 in 4.3 mi WSW 20.7 mph - N/A   Clear
4:30 PM 75.2 °F 57.2 °F 53% 29.92 in 5.0 mi WSW 16.1 mph - N/A   Clear
5:30 PM 73.4 °F 57.2 °F 57% 29.89 in 5.0 mi WSW 16.1 mph - N/A   Clear
6:20 PM 71.6 °F 55.4 °F 57% 29.89 in - WSW 16.1 mph - N/A   Clear
6:30 PM 71.6 °F 55.4 °F 57% 29.89 in - WSW 16.1 mph - N/A   Clear
7:20 PM 69.8 °F 53.6 °F 56% 29.89 in - WSW 18.4 mph - N/A   Clear
7:30 PM 69.8 °F 53.6 °F 56% 29.89 in - WSW 18.4 mph - N/A   Clear
8:30 PM 68.0 °F 53.6 °F 60% 29.95 in - Calm Calm - N/A   Clear
9:30 PM 66 °F 55 °F 59% 29.96 in 6 mi Calm Calm - -  
9:30 PM 66.2 °F 55.4 °F 68% 29.95 in - Calm Calm - N/A   Clear